Temp
21 20 20 20 18 17 19 20 22 23 21 22 23 22 20 20 20 19 19 20 19 19 19 19 18 18 18 18 18 18 18 19 19 19 19 18 18 18 18 18 18 18 18 18 17 18 18 18 18
21 20 20 20 17 19 20 21 20 23 21 22 22 21 20 19 19 18 18 18 19 19 19 19 18 18 19 18 18 18 19 19 19 19 19 19 18 18 18 18 18 18 18 17 18 18 18 18 18
21 21 20 16 17 18 19 22 20 22 21 23 21 21 20 18 18 19 19 19 19 19 19 19 17 18 19 19 18 18 18 19 18 18 17 18 19 18 18 18 18 18 18 18 18 18 18 18 17
21 21 19 18 19 19 20 20 20 20 21 22 21 20 20 20 20 19 19 19 19 19 18 18 18 18 19 18 18 18 18 18 18 18 17 17 18 18 18 17 18 18 17 17 18 18 18 18 17
21 20 17 18 18 19 19 18 19 21 22 21 21 19 18 19 20 20 20 19 19 19 18 18 18 18 18 19 18 17 18 18 17 17 17 18 18 18 18 17 18 17 17 17 17 17 17 17 17
20 20 19 20 19 18 18 20 21 21 21 20 20 19 17 19 21 19 19 19 19 19 19 18 18 18 18 18 18 17 18 18 18 18 18 17 17 18 18 18 18 17 17 18 17 17 17 17 17
19 18 20 19 19 19 20 20 20 21 21 20 20 17 17 17 20 20 19 18 19 19 19 18 18 17 18 17 17 17 18 18 18 18 17 18 18 18 18 18 18 18 18 18 18 18 17 17 17
21 18 20 19 19 19 20 20 21 20 21 20 20 18 17 18 19 19 18 18 18 18 18 18 17 16 17 17 17 17 18 18 18 17 17 17 18 18 18 18 18 18 18 18 18 18 18 17 17
22 19 19 19 18 20 20 20 22 22 21 21 20 20 19 19 19 19 18 18 18 18 18 17 17 17 17 17 17 17 17 17 17 18 18 17 18 18 18 18 19 19 18 18 19 18 18 17 17
21 18 21 20 19 20 20 20 21 22 21 19 19 19 19 18 18 19 19 19 19 18 18 17 17 17 17 17 17 17 17 18 18 18 18 17 17 17 18 19 19 19 18 18 18 18 18 18 18
21 20 21 19 19 21 21 21 21 21 21 20 19 19 19 19 19 19 19 20 20 19 18 17 17 17 17 17 18 17 18 18 18 18 17 17 17 18 19 19 19 19 19 18 19 19 18 18 17
21 21 21 19 20 20 20 20 20 21 22 22 22 21 20 19 19 19 19 19 19 19 18 18 17 17 17 17 17 17 18 18 18 18 17 18 18 19 18 19 19 19 19 19 19 19 18 17 18
20 20 20 19 20 20 18 20 20 21 23 22 21 20 20 20 20 19 19 19 18 18 18 18 18 17 17 17 17 18 18 18 18 18 18 18 19 19 19 19 19 19 19 19 20 19 19 20 19
20 20 20 19 19 20 19 21 21 22 23 20 20 20 21 20 20 19 19 19 19 18 18 18 18 17 17 17 17 18 18 18 18 18 18 19 19 19 19 19 19 19 19 20 19 18 20 20 19
19 20 20 20 20 20 21 21 22 22 21 20 19 19 20 20 19 20 20 19 19 19 18 18 18 17 17 17 17 18 18 18 19 19 19 19 19 19 19 19 19 19 20 20 20 19 20 19 20
19 19 18 21 20 21 21 20 22 22 22 20 20 19 19 20 20 20 19 19 19 18 18 18 18 18 18 18 18 18 18 18 19 19 19 19 19 19 19 20 19 19 20 20 20 19 19 20 19
18 19 19 21 21 20 20 21 22 22 23 22 21 20 19 20 19 20 19 20 19 18 18 18 18 18 18 18 18 18 18 19 19 19 19 19 19 19 18 19 19 19 20 19 19 19 20 19 19
19 18 20 20 21 21 20 19 19 22 22 22 23 22 20 21 21 21 20 20 18 18 18 18 18 18 18 18 18 18 18 18 19 19 20 20 20 19 19 19 19 19 19 19 19 20 20 20 19
19 20 21 22 23 21 19 19 20 21 21 21 22 21 20 21 21 20 20 20 19 18 18 18 18 18 18 18 19 18 18 19 19 19 20 20 20 20 20 20 19 19 19 19 19 20 20 20 20
20 20 21 21 22 20 19 19 20 20 19 21 23 21 21 21 20 20 20 20 19 19 18 17 18 18 19 19 19 18 18 18 19 19 20 20 19 19 19 19 20 20 19 19 19 19 19 19 20
20 20 21 22 22 19 20 19 19 20 20 21 22 23 22 22 21 20 20 20 20 19 19 18 18 18 19 19 18 18 18 18 19 20 20 20 19 19 19 19 19 20 19 19 20 19 20 20 20
21 23 24 22 20 20 21 19 19 18 19 20 21 21 22 22 22 21 21 20 20 20 19 18 18 18 18 19 18 18 19 19 19 19 19 19 19 19 19 19 19 20 19 19 19 19 19 20 20
22 24 24 23 20 20 19 19 20 18 19 19 20 21 22 23 23 22 22 22 21 20 20 19 18 18 18 18 19 19 19 19 19 19 19 19 19 19 19 19 19 19 20 19 20 20 20 20 20
25 23 21 19 17 19 21 19 20 18 19 19 20 21 22 22 23 22 22 22 21 20 20 19 19 19 19 19 19 19 19 19 19 19 19 19 19 19 19 19 19 19 20 20 19 19 19 19 19
23 19 19 19 18 18 16 19 19 21 20 20 19 21 22 22 22 23 22 22 21 21 20 19 19 19 19 19 19 20 20 19 19 19 19 19 20 20 19 19 19 19 19 19 19 19 19 19 19
20 19 18 22 20 20 19 20 22 22 22 22 22 22 23 22 22 22 23 23 22 22 21 22 20 20 20 20 20 19 20 19 19 19 19 19 20 20 19 19 19 19 19 19 19 19 19 19 19
23 22 21 19 18 18 18 20 22 22 22 21 22 22 23 23 23 22 23 23 23 22 22 22 22 22 20 20 21 20 20 19 19 19 19 19 19 19 19 19 19 19 19 19 19 19 19 19 19
24 22 22 17 21 21 20 19 20 23 25 23 21 22 22 21 22 23 23 23 23 23 23 22 22 22 22 21 21 21 20 20 20 19 19 19 19 19 20 19 19 19 19 19 19 18 19 19 19
23 23 19 18 18 18 18 19 19 21 22 23 23 23 24 23 23 24 24 24 24 23 23 23 22 22 22 22 21 21 21 21 20 19 19 19 19 19 19 19 20 19 19 19 19 19 19 19 19
23 23 19 19 22 16 17 19 22 21 21 23 25 27 26 25 25 25 25 24 24 24 23 23 23 22 23 22 22 21 21 21 20 20 20 19 19 19 19 19 19 19 19 19 19 18 18 19 19
Height
1509 1510 1509 1508 1517 1519 1524 1522 1512 1510 1510 1507 1507 1510 1513 1515 1515 1525 1515 1520 1524 1528 1532 1535 1538 1539 1541 1542 1543 1545 1547 1548 1549 1550 1550 1550 1551 1552 1553 1555 1555 1555 1557 1557 1557 1557 1558 1560 1560
1509 1509 1509 1508 1523 1531 1529 1518 1518 1507 1509 1508 1508 1511 1514 1517 1516 1515 1518 1522 1527 1530 1533 1536 1539 1540 1541 1543 1545 1547 1548 1550 1550 1551 1551 1552 1552 1553 1554 1555 1556 1557 1557 1558 1557 1558 1560 1561 1562
1510 1510 1511 1516 1525 1530 1527 1517 1519 1516 1514 1511 1510 1512 1514 1517 1517 1518 1520 1524 1529 1532 1535 1537 1539 1542 1542 1544 1546 1548 1549 1551 1552 1552 1553 1552 1554 1554 1556 1557 1558 1558 1558 1558 1559 1560 1561 1563 1563
1512 1512 1516 1523 1525 1520 1519 1518 1520 1519 1514 1512 1510 1512 1516 1518 1519 1521 1523 1527 1531 1534 1536 1538 1540 1542 1544 1545 1547 1549 1550 1551 1552 1553 1553 1553 1554 1555 1558 1558 1559 1559 1560 1561 1561 1562 1563 1564 1564
1512 1513 1523 1528 1527 1520 1519 1517 1520 1519 1517 1514 1510 1514 1517 1519 1521 1524 1526 1529 1532 1535 1537 1539 1540 1543 1545 1546 1548 1550 1551 1552 1553 1553 1554 1554 1556 1557 1559 1560 1560 1560 1561 1563 1563 1565 1565 1565 1566
1513 1514 1526 1528 1528 1523 1520 1517 1518 1516 1513 1513 1511 1513 1520 1520 1521 1524 1528 1530 1533 1535 1538 1540 1542 1544 1546 1548 1549 1550 1552 1553 1553 1554 1555 1556 1556 1558 1559 1560 1560 1560 1561 1562 1565 1566 1567 1568 1568
1516 1518 1523 1524 1523 1524 1518 1516 1516 1515 1515 1514 1512 1517 1522 1522 1523 1525 1529 1531 1534 1536 1538 1541 1543 1545 1547 1548 1549 1551 1553 1553 1554 1556 1556 1557 1558 1559 1559 1560 1560 1560 1561 1563 1564 1565 1567 1568 1568
1514 1517 1521 1521 1523 1524 1515 1514 1513 1515 1514 1514 1514 1517 1521 1521 1523 1526 1529 1532 1534 1536 1538 1540 1543 1545 1546 1548 1549 1551 1553 1554 1555 1556 1558 1559 1560 1560 1560 1560 1561 1561 1562 1563 1564 1565 1567 1566 1568
1512 1520 1524 1520 1521 1516 1516 1514 1511 1512 1513 1515 1516 1515 1516 1520 1523 1526 1529 1532 1534 1536 1538 1540 1543 1545 1547 1549 1550 1552 1553 1555 1557 1558 1558 1559 1560 1560 1561 1561 1561 1562 1563 1564 1564 1566 1567 1568 1566
1511 1520 1511 1506 1510 1512 1514 1515 1513 1514 1516 1517 1515 1516 1519 1522 1523 1525 1528 1530 1533 1536 1538 1541 1543 1545 1547 1550 1551 1552 1553 1556 1558 1559 1560 1560 1561 1562 1562 1563 1564 1564 1564 1564 1565 1566 1565 1565 1565
1509 1513 1508 1509 1509 1512 1514 1515 1514 1515 1517 1515 1514 1517 1521 1523 1525 1525 1528 1529 1531 1536 1538 1540 1543 1545 1548 1550 1552 1553 1555 1557 1559 1561 1562 1562 1562 1562 1564 1565 1566 1565 1564 1565 1565 1564 1564 1563 1564
1512 1509 1508 1510 1511 1512 1515 1515 1516 1516 1514 1514 1516 1516 1520 1523 1524 1526 1527 1529 1532 1535 1538 1541 1543 1546 1548 1551 1552 1555 1557 1559 1561 1563 1563 1563 1563 1563 1564 1565 1565 1564 1564 1564 1564 1564 1564 1561 1561
1513 1512 1511 1512 1513 1514 1515 1514 1515 1511 1513 1515 1518 1520 1520 1522 1524 1526 1528 1531 1532 1535 1538 1541 1543 1545 1548 1551 1553 1555 1557 1559 1561 1563 1563 1564 1565 1564 1564 1565 1565 1564 1564 1564 1565 1563 1561 1561 1561
1512 1511 1514 1514 1515 1517 1518 1514 1512 1512 1513 1517 1518 1519 1520 1521 1523 1526 1527 1529 1531 1534 1537 1540 1543 1545 1548 1551 1553 1556 1558 1560 1562 1563 1564 1564 1564 1565 1564 1565 1565 1565 1564 1564 1563 1561 1559 1561 1562
1513 1513 1513 1514 1515 1515 1517 1515 1512 1513 1514 1517 1518 1519 1520 1522 1524 1524 1525 1527 1529 1533 1536 1539 1542 1545 1548 1551 1553 1556 1559 1560 1561 1563 1563 1564 1564 1564 1564 1565 1566 1564 1564 1564 1563 1563 1562 1560 1561
1515 1516 1526 1512 1514 1513 1516 1523 1512 1513 1514 1517 1518 1519 1521 1520 1521 1524 1526 1527 1529 1532 1535 1539 1542 1545 1547 1551 1553 1555 1558 1560 1561 1562 1563 1563 1562 1563 1564 1565 1565 1565 1563 1564 1563 1564 1563 1560 1561
1520 1527 1524 1517 1513 1512 1515 1518 1509 1510 1512 1512 1513 1515 1518 1519 1521 1523 1525 1526 1528 1531 1534 1538 1541 1544 1547 1551 1553 1554 1556 1559 1560 1561 1562 1562 1562 1562 1563 1564 1564 1564 1563 1563 1563 1563 1562 1561 1561
1527 1528 1520 1519 1511 1512 1517 1517 1510 1510 1511 1511 1509 1509 1513 1514 1516 1521 1524 1525 1527 1530 1533 1537 1540 1544 1546 1549 1552 1553 1556 1557 1559 1560 1561 1561 1561 1561 1563 1564 1565 1564 1562 1562 1563 1563 1562 1561 1561
1514 1519 1518 1510 1506 1513 1515 1515 1508 1507 1509 1508 1506 1507 1510 1512 1516 1520 1523 1525 1526 1528 1531 1535 1538 1541 1543 1546 1550 1552 1555 1557 1558 1559 1560 1560 1561 1562 1562 1563 1564 1563 1562 1562 1562 1563 1561 1561 1560
1514 1517 1515 1508 1504 1513 1514 1512 1505 1504 1504 1505 1504 1505 1507 1511 1515 1518 1521 1522 1524 1526 1529 1532 1536 1539 1542 1545 1549 1552 1554 1555 1556 1557 1558 1560 1560 1560 1561 1561 1562 1562 1562 1562 1562 1562 1561 1561 1561
1516 1515 1512 1507 1504 1513 1513 1512 1503 1498 1499 1501 1502 1503 1505 1505 1511 1515 1518 1520 1522 1524 1527 1530 1534 1537 1540 1544 1547 1550 1552 1555 1555 1556 1558 1559 1559 1559 1559 1559 1560 1561 1561 1561 1561 1562 1562 1561 1561
1515 1498 1500 1506 1513 1525 1509 1531 1503 1497 1496 1495 1497 1500 1500 1502 1508 1512 1514 1517 1519 1522 1526 1529 1532 1535 1539 1542 1545 1548 1551 1552 1554 1555 1557 1558 1558 1558 1558 1558 1559 1558 1558 1559 1560 1560 1560 1560 1560
1499 1493 1497 1501 1516 1520 1518 1528 1501 1496 1498 1491 1488 1492 1497 1498 1502 1507 1510 1514 1517 1520 1523 1526 1530 1533 1537 1540 1543 1545 1548 1550 1552 1553 1555 1556 1557 1556 1557 1557 1557 1557 1558 1559 1559 1559 1560 1560 1560
1488 1499 1507 1514 1526 1538 1510 1523 1504 1500 1490 1485 1483 1486 1492 1496 1499 1504 1509 1514 1515 1518 1522 1524 1527 1530 1534 1537 1540 1542 1544 1546 1549 1551 1552 1553 1555 1555 1555 1555 1555 1556 1556 1557 1558 1559 1559 1559 1559
1493 1514 1534 1541 1544 1542 1521 1521 1502 1481 1479 1476 1478 1482 1488 1494 1496 1500 1505 1510 1513 1515 1518 1522 1524 1526 1530 1533 1536 1539 1541 1543 1545 1548 1550 1551 1552 1553 1554 1553 1554 1554 1555 1556 1557 1558 1559 1558 1558
1498 1505 1532 1537 1541 1528 1514 1520 1493 1473 1473 1476 1476 1481 1487 1490 1493 1497 1500 1505 1509 1512 1515 1518 1520 1523 1527 1530 1533 1536 1538 1540 1542 1545 1548 1550 1551 1552 1553 1553 1553 1554 1555 1555 1556 1557 1558 1557 1557
1490 1501 1490 1514 1521 1530 1521 1499 1479 1472 1473 1477 1477 1481 1484 1487 1489 1492 1496 1500 1505 1509 1511 1514 1517 1521 1524 1526 1529 1532 1535 1537 1539 1542 1545 1547 1549 1550 1550 1551 1552 1553 1554 1554 1554 1555 1556 1556 1555
1475 1479 1503 1517 1526 1528 1519 1513 1502 1479 1471 1472 1476 1478 1481 1485 1488 1491 1493 1497 1500 1505 1509 1512 1515 1517 1520 1523 1525 1528 1531 1534 1536 1539 1542 1543 1546 1547 1547 1548 1550 1552 1553 1552 1553 1552 1553 1553 1553
1481 1487 1496 1503 1514 1531 1534 1516 1478 1476 1473 1472 1471 1477 1479 1482 1485 1487 1491 1493 1496 1500 1504 1507 1511 1514 1516 1520 1523 1524 1527 1530 1533 1535 1537 1540 1542 1543 1543 1544 1546 1547 1549 1550 1551 1551 1551 1551 1551
1469 1479 1488 1509 1509 1519 1519 1510 1466 1468 1470 1471 1472 1473 1477 1480 1481 1484 1487 1490 1492 1496 1499 1503 1507 1510 1513 1516 1519 1521 1523 1526 1528 1530 1532 1535 1537 1540 1541 1541 1542 1544 1545 1546 1548 1549 1550 1550 1550
Wind_Speed
4 5 2 1 4 4 2 4 6 8 5 5 11 5 7 5 2 3 10 25 20 22 21 19 17 17 16 15 15 15 15 13 12 13 13 14 13 12 11 10 10 9 10 10 10 9 9 9 10
1 2 4 3 4 3 1 1 11 5 9 19 16 11 7 2 0 10 22 16 21 20 19 18 15 15 15 14 14 14 13 11 10 11 11 12 12 11 11 11 10 10 10 9 10 9 10 11 11
2 1 4 4 2 3 3 2 9 9 2 3 6 9 4 2 7 24 14 20 19 18 17 16 15 15 14 13 12 12 11 9 9 11 11 11 11 11 11 11 12 10 10 10 12 13 11 9 9
2 4 6 3 3 2 1 5 15 16 17 6 12 7 8 6 20 13 18 18 17 16 16 16 15 14 14 13 11 11 11 10 9 11 11 12 11 11 11 11 11 12 11 12 14 13 12 11 10
3 3 4 3 3 6 6 14 18 12 18 4 1 4 4 11 9 15 15 17 17 17 15 14 14 14 13 11 10 10 11 10 10 11 10 10 11 11 11 10 9 11 11 11 10 10 9 9 9
2 2 3 1 4 2 9 18 16 14 5 6 7 8 3 11 15 17 15 14 16 16 14 13 12 11 10 8 8 10 12 12 9 10 10 10 9 9 9 9 9 9 9 8 9 8 9 9 9
2 2 2 1 6 3 6 5 8 8 6 2 13 4 9 17 18 17 16 14 16 13 12 12 11 9 8 8 9 10 14 12 10 8 8 8 8 8 7 7 9 8 7 6 7 8 7 7 7
3 3 3 4 4 4 3 2 5 7 3 16 11 5 7 24 21 16 16 17 15 9 12 11 10 10 9 8 7 13 16 13 9 7 9 9 9 9 9 8 7 7 5 5 5 6 6 7 8
6 2 2 5 6 4 5 3 3 6 18 1 9 6 20 25 23 19 17 15 14 10 11 11 10 11 10 8 9 15 15 12 8 8 12 10 11 10 9 9 7 6 5 4 3 3 4 6 7
3 2 5 7 6 2 4 2 8 4 8 1 8 13 27 24 22 20 18 17 14 12 11 10 11 11 9 8 12 16 17 12 10 11 11 11 9 7 7 7 6 6 4 2 0 4 6 6 7
2 2 1 1 8 6 4 2 7 13 5 10 21 27 25 22 20 18 18 15 15 13 11 11 10 10 8 12 14 15 14 11 12 12 8 9 8 7 7 7 7 4 1 2 6 4 5 6 8
2 3 3 3 6 4 4 1 5 13 5 14 20 28 26 23 22 21 19 18 16 12 11 10 10 10 10 15 13 14 11 11 12 10 9 6 7 6 4 4 5 7 4 3 4 13 8 4 3
4 2 7 2 7 9 8 10 6 11 13 15 23 27 25 23 21 21 18 16 17 16 13 10 9 11 13 15 12 15 10 12 10 9 8 8 5 2 3 4 5 5 7 10 8 7 4 5 3
2 11 6 2 3 5 8 5 2 7 17 21 25 27 24 24 21 21 20 18 18 16 14 11 10 10 15 14 11 15 12 12 10 8 7 7 4 1 1 1 3 8 6 6 7 13 2 6 1
3 4 5 4 5 4 6 3 3 4 18 22 26 28 25 25 23 23 16 19 19 17 15 11 10 13 15 15 14 13 12 11 11 11 7 8 4 2 1 3 4 6 6 7 3 5 7 3 4
2 3 2 1 7 2 3 5 4 5 16 22 21 23 27 26 27 24 21 19 20 18 17 15 13 14 14 15 14 13 10 10 14 12 8 6 5 3 2 3 5 5 5 7 7 4 5 8 5
4 2 3 3 8 4 4 4 9 15 11 15 21 29 29 28 29 26 24 16 21 18 18 17 17 15 13 14 12 10 11 12 12 9 4 5 7 3 5 3 3 4 4 5 5 5 5 5 2
5 2 3 3 6 5 5 9 7 10 14 12 11 27 32 29 30 26 20 15 21 20 18 19 19 17 13 14 12 10 14 9 12 8 5 3 3 5 5 8 8 6 6 4 4 3 5 3 4
5 3 2 3 3 5 7 7 13 14 13 13 14 22 30 31 27 26 20 16 18 21 20 23 21 18 17 18 16 12 16 9 13 7 6 7 3 3 7 7 10 8 8 6 5 4 5 3 1
4 5 4 1 3 7 1 12 8 8 8 17 20 20 28 28 27 28 22 18 18 19 21 23 22 19 19 18 17 10 11 10 9 9 8 10 6 3 5 7 11 10 8 6 5 6 4 2 1
4 6 7 4 7 3 1 6 8 6 14 7 18 22 21 31 30 30 25 22 18 21 22 24 24 21 19 18 16 13 11 11 11 10 10 10 5 4 3 5 6 7 8 8 8 6 6 3 4
3 16 11 6 3 2 2 5 5 6 6 7 18 18 22 28 31 30 27 24 21 19 20 22 24 22 21 20 19 17 16 13 12 11 7 9 7 5 6 7 6 6 6 6 7 4 4 1 3
11 14 13 11 4 2 3 2 5 3 6 10 14 23 25 27 31 33 31 24 20 18 21 22 23 23 21 22 20 19 20 16 12 9 11 12 10 8 9 8 7 6 7 7 6 7 5 5 3
1 5 6 6 3 2 4 6 5 5 7 6 13 24 27 29 31 34 29 26 24 21 22 24 23 24 23 23 23 23 22 20 17 14 12 12 15 13 11 8 8 6 6 9 6 6 5 5 4
4 7 2 3 1 6 5 4 10 5 6 6 15 23 27 30 32 32 30 30 28 25 23 24 23 26 26 27 28 27 26 23 19 16 14 12 15 15 12 10 9 6 6 7 11 7 5 5 5
8 9 6 6 4 3 3 5 6 2 6 8 10 24 27 28 33 35 33 29 31 28 25 22 25 26 27 27 29 29 27 24 21 19 16 14 14 12 10 10 10 8 7 6 11 8 7 6 4
6 5 4 6 3 2 3 6 8 5 6 10 10 10 24 28 33 36 33 30 32 32 29 26 25 24 27 29 28 30 29 26 24 21 19 16 16 15 14 13 13 14 11 9 10 10 6 4 6
8 7 2 3 3 4 3 5 5 4 3 3 7 7 12 24 31 31 33 32 31 33 30 30 29 27 23 27 28 29 30 29 26 24 24 21 19 19 18 17 15 15 16 13 13 11 9 7 8
2 1 6 5 4 5 2 6 6 8 6 8 7 9 10 17 27 33 30 33 30 31 34 34 29 28 29 28 26 26 29 30 30 30 29 25 22 22 22 20 18 18 16 17 16 13 11 11 9
6 6 5 5 4 1 3 6 3 6 7 10 15 19 18 16 25 29 27 28 30 34 36 36 34 32 28 26 31 29 28 27 28 30 30 28 27 24 22 19 16 18 18 19 18 13 12 9 10
Wind_Direction
90 42 352 69 60 57 47 328 341 313 346 312 131 109 117 50 170 204 150 161 167 162 162 160 158 160 161 158 153 150 147 142 144 155 164 169 168 169 166 163 163 152 145 146 140 141 141 143 151
195 16 7 39 81 89 325 273 342 312 135 105 89 106 58 60 153 149 144 159 163 166 167 165 166 168 167 164 160 156 154 146 144 148 155 162 167 164 159 153 141 140 137 145 148 147 141 142 146
99 36 46 79 91 165 174 91 19 10 174 281 120 87 94 97 142 142 147 154 165 168 169 168 163 168 170 167 166 163 161 153 151 151 152 144 138 136 143 139 143 145 141 136 136 133 137 140 141
146 44 63 57 359 292 213 297 321 316 300 21 112 73 92 93 138 140 144 155 162 166 168 167 164 166 165 165 168 168 164 159 154 156 150 141 139 133 129 123 121 128 126 132 133 134 140 140 147
67 74 70 108 322 295 299 284 294 287 279 218 71 117 67 156 181 149 142 156 164 167 167 168 166 166 166 164 167 169 165 162 162 159 155 145 138 134 128 128 132 132 139 139 137 141 139 144 163
33 90 72 94 178 244 288 275 283 292 177 166 112 97 77 152 167 170 153 162 172 172 173 175 173 175 173 181 190 181 159 162 156 153 143 137 133 131 130 144 139 136 147 138 138 135 136 141 152
117 85 141 116 165 228 227 249 283 169 151 133 136 86 145 159 158 156 160 163 165 169 181 187 185 187 192 185 184 166 158 162 155 155 130 133 130 131 136 139 141 145 132 141 147 142 143 140 150
205 103 136 203 181 235 214 249 261 258 184 143 160 162 172 171 161 164 167 165 176 210 207 199 194 184 179 169 160 159 163 165 159 142 136 132 129 123 123 121 139 141 152 151 154 159 168 155 158
190 87 236 207 134 229 162 16 110 168 143 212 211 195 173 165 165 168 176 185 194 205 202 204 193 186 182 177 151 157 165 166 159 145 141 134 122 122 126 125 134 151 166 175 200 208 217 207 205
146 150 226 169 150 163 117 232 338 110 147 90 123 152 162 165 172 177 193 204 209 199 195 196 192 190 191 165 157 162 161 155 156 143 143 125 121 117 126 125 117 121 108 118 264 241 241 255 271
158 242 274 74 139 145 140 291 343 134 185 203 158 157 167 175 184 194 208 218 211 195 199 191 194 196 184 157 162 156 152 149 146 146 141 124 124 121 110 93 76 71 100 222 10 343 303 288 244
346 22 34 89 129 90 359 293 327 223 241 179 165 166 174 186 195 201 211 202 196 203 185 185 184 184 162 158 162 161 154 146 151 148 151 144 136 129 97 75 58 50 25 15 17 10 351 24 234
22 353 50 86 147 127 292 286 272 251 207 167 169 174 179 191 200 207 214 212 204 194 189 188 182 180 169 163 164 160 160 159 159 156 158 161 152 137 43 74 40 355 12 27 18 1 275 262 281
140 84 111 109 167 178 200 272 283 118 167 173 180 187 190 196 199 207 219 217 209 204 202 188 178 182 179 177 169 165 164 172 172 174 160 168 170 157 1 85 77 33 13 5 3 40 3 279 39
62 65 0 183 177 205 217 318 152 135 184 182 189 196 199 205 207 211 215 220 217 203 202 191 183 177 175 175 171 176 168 168 185 171 167 173 168 156 254 94 69 37 24 26 41 23 71 316 135
97 71 42 160 184 168 141 230 250 170 160 193 199 202 203 211 214 216 220 223 220 213 205 196 196 184 178 175 177 173 178 169 181 183 189 201 201 197 228 74 78 24 6 33 31 19 60 56 78
12 139 161 294 222 135 138 232 248 196 165 177 199 205 208 214 220 219 222 228 224 215 212 209 198 190 178 182 177 181 180 172 189 203 202 173 200 221 246 283 334 345 4 28 22 33 22 14 227
229 184 246 246 212 222 156 263 285 255 224 221 219 204 206 212 218 216 212 218 221 212 211 213 197 194 191 196 199 198 189 172 173 189 195 132 156 210 258 249 264 301 320 315 352 333 348 340 243
144 158 86 240 212 179 219 247 257 253 237 203 187 185 194 210 216 210 208 210 214 212 205 201 208 200 203 205 199 195 204 214 201 211 206 184 180 190 230 237 257 276 297 283 300 314 312 307 56
141 156 229 281 221 175 192 260 253 235 240 213 201 195 205 208 210 211 207 209 207 206 206 204 204 202 201 197 196 205 202 216 215 216 224 207 216 244 270 264 251 258 271 255 276 283 283 217 17
170 203 199 191 146 127 38 281 228 231 220 207 214 217 210 212 209 208 207 209 208 206 206 207 205 206 201 196 201 215 219 219 218 220 226 221 240 239 260 238 251 274 257 261 246 261 251 237 73
230 205 200 129 90 270 142 269 277 196 213 202 202 207 209 207 210 209 208 209 211 210 210 206 202 201 204 206 211 215 216 217 218 220 229 239 250 254 225 228 274 309 244 265 249 222 243 174 132
234 164 201 174 125 48 208 318 270 114 218 237 209 208 210 203 209 211 211 214 217 209 210 210 210 210 209 207 213 215 216 223 222 224 237 247 239 247 235 240 263 314 249 258 220 221 246 220 174
23 109 57 60 81 309 205 169 266 188 208 225 217 207 214 214 212 213 216 214 218 216 213 209 212 214 213 212 214 219 223 226 233 236 230 237 241 242 238 245 257 281 242 226 215 210 229 199 204
95 67 17 9 26 225 4 134 250 249 217 213 193 201 210 210 211 212 219 219 219 218 218 213 212 216 213 212 217 220 227 234 236 231 235 245 231 231 244 244 248 256 253 237 223 229 234 220 235
181 156 162 201 203 260 346 229 256 269 293 215 190 203 207 214 217 219 221 226 222 223 219 220 216 215 216 218 219 223 227 234 238 238 234 230 226 229 246 245 240 246 249 241 200 229 241 225 257
183 186 191 114 21 100 237 291 305 334 126 138 142 177 207 214 219 225 225 227 226 225 226 228 225 224 221 220 223 224 227 232 236 241 240 237 237 243 243 245 239 241 252 240 211 224 225 249 260
148 165 89 12 150 240 268 290 238 278 192 249 152 188 214 216 220 227 229 233 235 231 233 237 235 235 233 231 231 231 232 235 238 241 244 244 244 248 248 251 250 244 245 234 230 232 239 267 268
85 216 55 122 126 163 180 262 216 210 215 224 243 199 219 230 223 227 231 236 241 237 234 234 238 242 240 239 240 239 240 241 244 244 246 247 247 248 248 248 261 238 231 233 236 238 246 271 273
150 177 136 127 225 177 160 271 254 212 204 192 241 257 257 249 232 227 229 230 236 239 242 242 241 238 243 244 244 245 246 247 247 247 247 247 247 249 248 245 241 241 240 231 233 235 243 260 271